Massena, NY

2:43 PM EST on December 07, 2019 (GMT -0500)
Massena International-Richards

Weather History for KMSS - October, 2019

Change the Weather History Date:

Friday, October 11, 2019

  Actual Average Record
Temperature  
Mean Temperature 51 °F 48 °F  
Max Temperature 65 °F 58 °F 85 °F (1949)
Min Temperature 37 °F 38 °F 21 °F (1974)
Degree Days  
Heating Degree Days 14 17  
Month to date heating degree days 167 167  
Since 1 July heating degree days 382 467  
Cooling Degree Days 0 0  
Month to date cooling degree days 0 0  
Year to date cooling degree days 398 361  
Moisture  
Dew Point 40 °F    
Average Humidity 67    
Maximum Humidity 93    
Minimum Humidity 40    
Precipitation  
Precipitation 0.00 in 0.12 in 0.80 in (1975)
Month to date precipitation 1.28 1.23  
Year to date precipitation 24.99 27.42  
Sea Level Pressure  
Sea Level Pressure 30.27 in    
Wind  
Wind Speed 9 mph (NE)    
Max Wind Speed 21 mph    
Max Gust Speed 25 mph    
Visibility 10 miles    
Events      
T = Trace of Precipitation, MM = Missing Value Source: NWS Daily Summary

Daily Weather History Graph

Daily Weather History Graph

Search for Another Location

Airport or City:

Astronomy

Oct. 11, 2019 Rise Set
Actual Time 7:09 AM EDT 6:21 PM EDT
Civil Twilight 6:40 AM EDT 6:51 PM EDT
Nautical Twilight 6:06 AM EDT 7:25 PM EDT
Astronomical Twilight 5:32 AM EDT 7:59 PM EDT
Moon 5:58 PM EDT (10/11) 4:38 AM EDT (10/11)
Length of Visible Light 12h 11m
Length of Day
11h 12m
Waxing Gibbous, 96% of the Moon is Illuminated
Oct 11
Waxing Gibbous
Oct 13
Full
Oct 21
Last Quarter
Oct 27
New
Nov 4
First Quarter

Hourly Weather History & Observations

Time (EDT) Temp. Windchill Dew Point Humidity Pressure Visibility Wind Dir Wind Speed Gust Speed Precip Events Conditions
12:53 AM 48.0 °F - 41.0 °F 77% 30.35 in 10.0 mi ENE 8.1 mph - N/A   Clear
1:53 AM 45.0 °F 40.6 °F 41.0 °F 86% 30.34 in 10.0 mi NNE 8.1 mph - N/A   Clear
2:53 AM 42.1 °F 37.7 °F 37.9 °F 85% 30.33 in 10.0 mi NNE 6.9 mph - N/A   Clear
3:53 AM 42.1 °F 39.2 °F 39.0 °F 89% 30.33 in 10.0 mi NE 4.6 mph - N/A   Clear
4:53 AM 37.0 °F - 35.1 °F 93% 30.34 in 6.0 mi Calm Calm - N/A   Clear
5:53 AM 41.0 °F 38.0 °F 37.9 °F 89% 30.34 in 10.0 mi NE 4.6 mph - N/A   Clear
6:53 AM 39.0 °F 34.8 °F 37.0 °F 93% 30.35 in 10.0 mi ENE 5.8 mph - N/A   Clear
7:53 AM 39.0 °F - 36.0 °F 89% 30.35 in 9.0 mi Calm Calm - N/A   Clear
8:53 AM 48.0 °F - 43.0 °F 83% 30.35 in 10.0 mi ENE 5.8 mph - N/A   Clear
9:53 AM 52.0 °F - 42.1 °F 69% 30.34 in 10.0 mi ENE 13.8 mph - N/A   Clear
10:53 AM 55.9 °F - 42.1 °F 60% 30.33 in 10.0 mi ENE 12.7 mph - N/A   Clear
11:53 AM 57.9 °F - 41.0 °F 53% 30.31 in 10.0 mi NE 15.0 mph - N/A   Clear
12:53 PM 61.0 °F - 43.0 °F 52% 30.28 in 10.0 mi NE 15.0 mph - N/A   Clear
1:53 PM 63.0 °F - 41.0 °F 45% 30.25 in 10.0 mi ENE 17.3 mph - N/A   Clear
2:53 PM 64.9 °F - 39.9 °F 40% 30.23 in 10.0 mi ENE 15.0 mph - N/A   Clear
3:53 PM 64.9 °F - 41.0 °F 42% 30.22 in 10.0 mi ENE 13.8 mph - N/A   Clear
4:53 PM 64.9 °F - 41.0 °F 42% 30.20 in 10.0 mi NE 16.1 mph - N/A   Clear
5:53 PM 61.0 °F - 43.0 °F 52% 30.19 in 10.0 mi NE 9.2 mph - N/A   Clear
6:53 PM 57.0 °F - 42.1 °F 57% 30.19 in 10.0 mi ENE 10.4 mph - N/A   Clear
7:53 PM 54.0 °F - 39.9 °F 59% 30.19 in 10.0 mi ENE 8.1 mph - N/A   Clear
8:53 PM 53.1 °F - 41.0 °F 64% 30.17 in 10.0 mi NE 6.9 mph - N/A   Clear
9:53 PM 48.9 °F - 42.1 °F 77% 30.16 in 10.0 mi NE 6.9 mph - N/A   Clear
10:53 PM 46.9 °F - 41.0 °F 80% 30.14 in 10.0 mi NE 6.9 mph - N/A   Clear
11:53 PM 48.9 °F - 41.0 °F 74% 30.11 in 10.0 mi NE 10.4 mph - N/A   Clear